Temperature
6 6 5 5 5 5 5 5 4 3 3 4 4 4 4 4 4 4 4 4 4 4 4 4 4 4 4 4 4 4 4 4 3 3 3 3 3 4
5 5 5 5 5 5 5 4 4 4 3 4 4 4 4 3 3 3 3 4 4 4 4 4 4 4 3 3 3 3 3 3 3 3 3 3 3 3
5 5 5 4 4 4 4 4 4 3 3 3 3 3 3 3 3 3 3 3 3 3 3 3 3 3 3 3 3 3 3 3 3 3 3 3 3 3
4 4 4 4 4 4 4 4 3 3 3 3 3 3 3 3 3 3 3 3 3 3 3 3 3 3 2 2 2 2 2 2 2 2 2 2 2 2
4 4 4 4 3 3 3 3 3 3 2 2 2 2 2 2 2 2 2 2 2 2 2 2 2 2 2 2 2 2 2 2 2 2 2 2 2 2
3 3 3 3 3 3 3 2 2 2 2 2 2 2 2 1 1 1 2 2 2 2 2 2 2 2 2 2 1 1 1 1 1 1 1 1 1 1
3 3 3 3 3 2 2 2 2 2 2 2 1 1 1 1 1 1 1 1 1 1 1 1 1 1 1 1 1 1 1 1 1 1 1 1 1 1
2 2 2 2 2 2 2 2 1 1 1 1 1 1 1 1 0 0 -0 -0 -0 0 1 1 1 1 1 1 1 0 0 0 0 0 0 0 0 0
2 2 2 2 2 2 1 1 1 1 1 1 1 1 1 0 0 -0 -0 -0 -1 -0 -0 0 0 0 0 0 0 -0 -0 -0 -0 -0 -0 -0 -0 -0
2 2 2 2 1 1 1 1 1 1 1 0 0 0 0 -0 -0 -1 -1 -1 -1 -1 -1 -1 -0 -0 -0 -0 -0 -0 -1 -1 -1 -1 -1 -1 -1 -1
1 1 1 1 1 1 1 1 1 1 0 -0 -0 -0 -0 -1 -1 -1 -1 -1 -1 -1 -1 -2 -1 -1 -0 -1 -1 -1 -1 -1 -1 -1 -1 -1 -1 -1
1 1 1 1 1 0 0 0 0 0 -0 -0 -1 -1 -1 -1 -1 -1 -1 -2 -2 -2 -2 -2 -2 -2 -2 -1 -1 -1 -1 -1 -1 -1 -1 -2 -2 -2
0 0 0 0 0 -0 -0 -0 -0 -0 -1 -1 -1 -1 -1 -1 -1 -2 -2 -2 -2 -2 -2 -3 -2 -3 -3 -2 -2 -2 -2 -2 -2 -2 -2 -2 -2 -2
0 0 -0 -0 -0 -0 -1 -1 -1 -1 -1 -1 -1 -1 -1 -1 -2 -2 -2 -2 -2 -3 -3 -3 -3 -3 -3 -3 -3 -2 -2 -2 -2 -2 -2 -2 -2 -2
-0 -1 -1 -1 -1 -1 -1 -1 -1 -1 -1 -2 -1 -1 -2 -2 -2 -2 -2 -3 -3 -3 -3 -3 -3 -3 -3 -3 -3 -3 -3 -3 -3 -3 -3 -3 -3 -3
-1 -1 -1 -1 -1 -1 -2 -2 -2 -2 -2 -2 -2 -2 -2 -2 -3 -3 -3 -3 -3 -3 -3 -3 -3 -3 -3 -4 -4 -4 -4 -4 -3 -3 -3 -3 -3 -3
-2 -2 -2 -2 -2 -2 -2 -2 -2 -2 -2 -2 -2 -2 -3 -3 -3 -3 -3 -3 -3 -3 -3 -3 -3 -4 -4 -4 -4 -4 -4 -4 -4 -4 -3 -3 -3 -3
-2 -2 -2 -2 -2 -2 -2 -2 -2 -2 -3 -3 -3 -3 -3 -3 -3 -3 -3 -4 -4 -4 -4 -4 -4 -4 -4 -4 -4 -4 -4 -4 -4 -4 -4 -4 -4 -4
-3 -3 -3 -3 -3 -3 -3 -3 -3 -3 -3 -3 -3 -3 -3 -3 -4 -4 -4 -4 -4 -4 -4 -4 -5 -5 -5 -5 -4 -5 -5 -5 -4 -4 -4 -4 -4 -4
-3 -3 -3 -3 -3 -3 -3 -3 -3 -3 -4 -4 -4 -4 -4 -4 -4 -4 -4 -4 -5 -5 -5 -5 -5 -5 -5 -5 -5 -5 -5 -5 -5 -5 -5 -4 -4 -4
-4 -4 -4 -4 -4 -3 -3 -4 -4 -4 -4 -4 -4 -4 -4 -4 -4 -4 -5 -5 -5 -5 -5 -5 -5 -5 -6 -6 -5 -5 -5 -5 -5 -5 -5 -5 -5 -4
-4 -4 -4 -4 -4 -4 -4 -4 -4 -4 -4 -4 -4 -4 -4 -5 -5 -5 -5 -5 -5 -5 -5 -5 -5 -5 -6 -6 -6 -5 -5 -5 -5 -5 -5 -6 -6 -6
-4 -4 -4 -4 -4 -4 -4 -4 -4 -4 -5 -5 -5 -5 -5 -5 -5 -5 -5 -5 -6 -6 -6 -6 -6 -6 -6 -6 -6 -6 -6 -5 -5 -5 -5 -5 -6 -6
Wind_Speed
4 3 3 2 2 2 2 3 3 2 3 3 2 2 3 4 6 5 6 7 8 8 8 8 8 8 9 9 9 9 9 9 9 10 11 12 12 13
3 4 3 2 2 2 2 2 2 3 3 2 2 2 3 5 7 6 7 8 8 9 8 8 8 8 8 8 8 9 9 9 9 11 12 12 12 13
3 4 4 3 2 2 2 2 2 2 3 3 2 2 2 3 5 6 6 6 7 9 9 8 8 8 8 8 8 9 9 9 10 10 11 12 13 13
5 5 5 3 3 3 2 2 2 2 2 4 3 2 3 3 3 4 5 6 6 8 9 8 8 8 8 8 8 8 8 8 10 10 11 12 13 14
6 6 5 5 5 3 3 3 2 2 2 2 3 2 2 2 3 4 4 4 6 7 8 8 8 8 8 8 8 8 8 8 9 10 11 12 12 13
5 5 5 6 6 5 4 3 3 2 2 2 2 2 2 2 1 3 4 3 4 5 7 7 8 7 7 7 7 8 9 9 10 11 11 11 12 12
4 5 5 6 6 5 4 4 4 3 2 2 2 2 2 1 2 2 3 4 4 3 4 4 4 4 5 6 7 8 9 9 10 11 11 11 11 12
5 4 4 5 6 6 6 5 5 4 4 3 3 3 4 3 2 2 2 3 4 2 3 5 3 3 4 5 8 9 9 9 10 11 11 12 12 12
5 4 3 4 5 3 5 5 6 6 6 5 5 6 5 4 3 3 3 3 4 3 3 4 3 4 5 7 9 8 9 10 10 11 11 12 12 12
5 5 5 4 4 4 3 3 4 4 5 4 5 6 5 4 4 4 4 3 4 3 2 3 3 4 5 6 8 8 9 10 10 11 11 12 12 12
4 5 5 5 5 5 4 3 3 3 4 5 6 5 5 5 3 1 1 2 3 3 1 1 2 4 4 4 6 8 9 10 10 11 12 13 12 12
3 4 5 5 5 5 4 4 4 4 2 2 2 3 3 3 4 3 3 2 2 3 2 1 2 2 3 3 3 5 7 9 11 12 12 13 13 9
3 3 4 5 5 5 5 4 5 3 2 2 1 1 1 1 2 3 3 3 3 4 2 1 1 2 2 4 3 4 5 5 7 8 11 12 12 10
4 3 3 5 5 5 4 4 3 2 1 1 1 2 2 2 2 3 3 4 4 5 5 3 2 2 2 4 4 4 4 5 5 5 7 10 11 12
3 4 4 4 3 3 4 4 3 2 2 2 2 3 2 2 2 1 2 2 2 2 3 4 3 2 3 4 4 4 4 4 4 5 5 6 6 7
2 2 3 3 2 2 3 3 2 2 3 3 2 2 1 1 2 2 1 1 1 2 2 3 3 3 3 4 4 4 4 4 4 5 6 5 6 6
2 1 1 1 1 1 1 1 2 2 2 2 2 2 2 2 2 1 1 1 1 2 2 2 3 3 4 4 3 4 4 4 5 5 5 6 5 6
3 2 2 2 3 3 2 2 2 2 2 2 2 2 2 2 2 1 1 1 2 2 2 2 2 3 2 2 4 4 3 4 4 5 4 5 6 6
3 3 3 3 3 3 3 3 3 2 2 2 3 3 3 2 2 2 2 2 2 2 2 2 1 1 3 4 3 3 2 4 4 4 4 4 6 7
2 3 3 3 3 3 3 3 2 2 2 2 3 3 2 2 2 2 2 2 2 2 2 2 2 2 3 3 3 3 4 4 3 4 5 5 5 8
3 3 3 3 3 3 3 3 3 3 3 2 3 3 3 3 3 3 3 3 3 2 3 3 3 4 2 1 3 4 4 6 5 4 4 5 5 5
3 3 3 3 3 3 3 3 3 3 3 3 3 3 3 3 3 3 3 3 3 2 2 2 2 1 1 2 4 5 5 5 6 8 7 6 3 3
3 3 3 3 3 2 3 3 4 3 3 3 3 3 3 3 3 2 3 2 2 2 2 2 2 1 2 2 3 4 5 5 5 5 4 6 7 9
Wind_Direction
194 196 203 208 201 191 180 175 181 237 261 253 271 286 303 306 312 317 309 311 315 316 319 318 314 314 317 317 314 310 305 303 306 309 312 313 311 311
196 193 207 207 201 198 183 187 190 206 243 251 255 282 297 302 306 310 303 311 311 314 316 317 317 312 317 319 318 318 314 311 312 314 316 317 317 315
201 202 213 201 199 210 191 184 196 197 245 275 273 285 284 294 310 308 303 302 305 310 310 312 315 317 317 321 321 318 314 315 316 317 319 321 322 320
208 207 215 207 205 212 206 202 208 209 222 265 281 275 273 279 298 302 312 310 303 309 311 312 315 317 320 323 324 328 326 323 321 321 320 320 320 320
209 208 213 206 213 212 211 215 216 225 223 241 264 272 281 289 312 310 312 312 308 310 311 310 310 312 314 318 321 323 324 323 320 319 319 318 318 318
215 212 212 210 212 208 212 216 213 214 217 230 256 273 277 288 301 312 318 322 317 314 314 309 306 311 312 313 317 321 323 325 322 319 317 316 315 316
221 223 221 217 219 216 214 208 201 207 213 229 246 266 273 277 275 281 299 315 308 303 317 315 311 311 312 311 312 318 318 318 318 318 318 317 314 315
218 226 229 225 229 231 231 224 211 208 213 220 235 246 249 247 263 270 287 312 298 309 325 309 312 303 298 294 305 313 316 317 319 320 320 318 316 315
209 213 230 240 229 217 234 237 235 231 222 216 228 237 238 232 236 258 265 269 270 287 313 298 312 303 303 305 307 313 318 321 322 322 322 322 320 316
215 216 222 231 229 213 211 225 231 235 241 232 225 234 235 230 225 236 248 279 284 283 280 279 303 303 309 309 316 323 325 325 326 326 326 325 321 319
226 224 220 222 230 224 212 221 239 259 265 258 257 256 253 247 232 196 248 294 292 284 261 264 288 307 306 302 312 324 328 328 328 328 326 325 325 323
228 231 231 226 230 227 211 208 228 245 239 268 275 272 264 249 241 231 212 239 275 273 248 259 288 322 310 297 306 322 329 328 330 329 327 326 326 324
220 230 232 233 241 236 219 216 230 229 214 217 233 253 276 266 259 253 233 219 236 252 238 227 260 276 275 295 304 309 317 318 322 323 325 326 329 328
216 223 231 235 240 242 231 228 227 213 194 200 227 247 250 252 258 263 257 249 244 242 234 226 237 247 270 287 291 308 315 312 315 316 321 324 326 325
222 226 229 233 234 233 228 223 213 200 197 211 232 245 244 241 249 272 283 284 294 278 247 242 232 248 248 263 279 298 311 311 314 315 317 319 316 321
226 217 217 217 217 219 219 219 217 211 209 215 224 232 223 225 232 233 245 259 299 304 298 278 247 236 253 262 266 284 292 299 316 318 315 312 311 311
187 157 152 171 206 220 227 225 212 209 230 224 212 220 232 242 245 234 221 226 249 267 299 320 314 285 253 255 269 275 287 294 298 314 318 316 313 312
165 175 192 206 216 221 224 235 232 227 223 215 218 223 233 240 242 242 236 234 253 262 274 290 320 332 321 283 245 267 286 292 304 311 311 310 312 315
185 196 208 216 224 225 225 228 237 236 220 219 229 229 232 231 234 241 241 251 258 259 265 267 288 307 306 303 299 262 278 301 308 306 301 294 296 306
203 204 215 223 228 229 227 230 235 226 217 222 227 226 217 220 232 236 232 243 252 258 264 260 248 248 256 272 282 290 288 282 291 300 304 300 293 297
219 218 220 222 230 232 229 228 227 224 221 218 224 221 218 221 230 230 231 244 248 241 247 260 265 271 268 289 292 295 296 295 290 284 298 305 309 316
226 228 227 224 224 228 224 222 223 225 221 220 223 220 219 221 225 222 224 233 242 244 254 271 282 287 273 274 282 292 302 311 312 305 289 278 286 299
227 230 229 223 224 225 224 224 221 226 224 220 217 217 215 220 224 224 228 234 238 240 250 267 289 291 283 275 283 291 299 308 315 322 315 312 304 297
Height
1496 1497 1497 1498 1499 1499 1500 1500 1501 1499 1497 1497 1498 1498 1497 1496 1495 1494 1493 1491 1490 1488 1486 1484 1483 1481 1480 1478 1477 1476 1475 1473 1472 1470 1469 1467 1465 1463
1492 1493 1494 1494 1495 1496 1496 1496 1497 1497 1495 1494 1494 1494 1494 1493 1492 1491 1490 1488 1486 1485 1483 1481 1479 1478 1476 1475 1474 1472 1471 1469 1467 1466 1464 1463 1461 1458
1489 1489 1490 1491 1491 1492 1492 1492 1493 1493 1492 1491 1491 1491 1490 1489 1488 1487 1486 1484 1482 1481 1479 1478 1476 1474 1473 1471 1470 1468 1466 1465 1464 1462 1460 1458 1456 1454
1485 1485 1486 1487 1487 1488 1489 1488 1489 1489 1489 1487 1487 1487 1486 1485 1484 1483 1482 1480 1479 1477 1476 1474 1473 1471 1469 1468 1466 1464 1463 1462 1460 1458 1457 1454 1452 1450
1481 1482 1482 1483 1483 1484 1485 1485 1485 1485 1485 1484 1483 1483 1482 1481 1480 1479 1478 1477 1475 1474 1472 1471 1470 1468 1466 1465 1463 1462 1460 1458 1457 1455 1453 1451 1449 1446
1477 1478 1478 1479 1479 1480 1480 1481 1481 1481 1481 1480 1479 1479 1478 1478 1477 1476 1474 1473 1472 1471 1469 1468 1466 1465 1463 1462 1460 1459 1457 1455 1453 1451 1449 1447 1445 1443
1473 1474 1474 1475 1476 1476 1477 1477 1477 1477 1477 1476 1475 1475 1474 1474 1473 1472 1471 1470 1468 1467 1466 1464 1463 1461 1460 1458 1457 1455 1453 1452 1449 1447 1446 1443 1441 1439
1468 1469 1470 1471 1472 1472 1473 1473 1474 1474 1473 1473 1472 1471 1470 1470 1470 1469 1468 1466 1464 1465 1463 1461 1460 1458 1456 1455 1453 1452 1450 1448 1446 1444 1442 1439 1437 1435
1464 1465 1466 1467 1467 1468 1468 1469 1469 1469 1469 1469 1468 1467 1467 1467 1467 1465 1465 1463 1462 1461 1460 1457 1456 1455 1453 1451 1450 1448 1446 1444 1442 1440 1438 1436 1434 1431
1460 1461 1462 1462 1463 1463 1464 1464 1464 1464 1465 1465 1464 1464 1464 1464 1463 1463 1462 1460 1459 1458 1457 1455 1453 1451 1450 1448 1447 1445 1443 1441 1439 1437 1435 1432 1430 1428
1456 1457 1458 1458 1459 1460 1460 1460 1460 1460 1460 1460 1460 1460 1460 1460 1460 1459 1458 1457 1455 1454 1454 1452 1450 1448 1446 1445 1444 1442 1440 1438 1436 1434 1432 1429 1427 1425
1452 1452 1453 1454 1455 1455 1456 1456 1456 1456 1456 1456 1456 1456 1456 1456 1456 1455 1455 1454 1453 1452 1450 1450 1448 1446 1443 1441 1441 1439 1437 1435 1433 1431 1429 1426 1424 1421
1447 1448 1449 1450 1451 1451 1452 1452 1452 1452 1452 1452 1452 1452 1452 1451 1451 1451 1451 1451 1450 1449 1449 1447 1445 1444 1443 1439 1437 1436 1434 1432 1430 1428 1426 1424 1421 1419
1443 1444 1445 1446 1447 1447 1448 1448 1448 1449 1448 1448 1448 1448 1448 1448 1448 1448 1448 1447 1447 1446 1445 1445 1443 1442 1440 1436 1434 1432 1431 1430 1427 1425 1423 1421 1418 1416
1440 1441 1441 1442 1442 1443 1444 1444 1444 1444 1444 1444 1444 1444 1444 1444 1444 1444 1444 1444 1443 1443 1442 1441 1440 1439 1437 1435 1432 1430 1428 1426 1425 1422 1420 1418 1415 1413
1436 1437 1437 1438 1438 1439 1439 1440 1440 1441 1441 1441 1441 1441 1441 1441 1441 1440 1440 1440 1439 1439 1439 1438 1437 1436 1434 1432 1430 1428 1426 1424 1422 1420 1417 1415 1413 1410
1432 1432 1433 1433 1434 1435 1435 1436 1436 1437 1437 1437 1437 1437 1437 1437 1437 1437 1437 1436 1436 1435 1435 1435 1434 1432 1431 1429 1427 1425 1424 1422 1420 1417 1415 1412 1410 1408
1428 1427 1428 1429 1430 1431 1431 1432 1432 1433 1433 1434 1434 1434 1434 1433 1434 1434 1433 1433 1432 1432 1432 1431 1430 1429 1428 1426 1426 1423 1421 1419 1417 1415 1413 1409 1407 1406
1423 1424 1425 1425 1426 1427 1427 1428 1428 1429 1429 1430 1430 1430 1430 1430 1430 1430 1430 1430 1429 1429 1429 1428 1427 1426 1424 1422 1421 1421 1419 1416 1414 1412 1410 1408 1405 1402
1419 1420 1421 1422 1422 1423 1424 1424 1425 1425 1426 1426 1426 1426 1427 1427 1427 1427 1427 1426 1426 1426 1425 1425 1424 1423 1422 1421 1419 1417 1417 1414 1412 1410 1408 1405 1403 1401
1416 1417 1418 1418 1419 1419 1420 1421 1421 1422 1422 1422 1423 1423 1423 1423 1423 1423 1423 1423 1423 1423 1422 1422 1422 1421 1420 1419 1417 1414 1414 1412 1410 1408 1405 1402 1399 1397
1412 1413 1414 1415 1415 1416 1416 1417 1418 1418 1419 1419 1419 1419 1420 1420 1420 1420 1420 1420 1420 1420 1419 1419 1419 1418 1417 1416 1414 1412 1410 1409 1408 1406 1404 1401 1399 1395
1408 1409 1410 1411 1411 1412 1413 1413 1414 1414 1415 1415 1416 1416 1416 1417 1417 1417 1417 1417 1417 1417 1417 1416 1416 1415 1414 1413 1411 1410 1408 1406 1405 1403 1401 1400 1398 1396